EW2546 Weather Reports


Display with metric or nautical units.
time (UTC)temp
F
wind
direction
speed
MPH
gust
MPH
rain 1hr
in
rain 24hr
in
rain mn
in
humidity
%
barometer
mb
20260903001027 63 0 0.0 0.0 0.00 0.00 0.00 83 1021.0
20260903000525 63 0 0.0 0.0 0.00 0.00 0.00 82 1021.0
20260903000051 63 0 0.0 0.0 0.00 0.00 0.00 82 1021.0
20260902235525 63 0 0.0 0.0 0.00 0.00 0.00 81 1021.2
20260902235026 63 0 0.0 0.0 0.00 0.00 0.00 81 1021.1
20260902234557 63 0 0.0 1.0 0.00 0.00 0.00 80 1021.2
20260902234024 63 0 0.0 1.0 0.00 0.00 0.00 79 1021.1
20260902233527 63 0 0.0 0.0 0.00 0.00 0.00 79 1021.2
20260902233051 64 0 0.0 0.0 0.00 0.00 0.00 78 1021.1
20260902232524 64 0 0.0 0.0 0.00 0.00 0.00 78 1021.2
20260902232024 64 0 0.0 0.0 0.00 0.00 0.00 77 1021.3
20260902231547 64 0 0.0 0.0 0.00 0.00 0.00 76 1021.2
20260902231025 64 0 0.0 0.0 0.00 0.00 0.00 76 1021.2
20260902230526 64 0 0.0 0.0 0.00 0.00 0.00 76 1021.2
20260902230056 65 0 0.0 0.0 0.00 0.00 0.00 75 1021.0
20260902225528 65 0 0.0 0.0 0.00 0.00 0.00 75 1021.1
20260902225026 65 0 0.0 0.0 0.00 0.00 0.00 74 1021.4
20260902224600 65 0 0.0 0.0 0.00 0.00 0.00 73 1021.7
20260902224027 65 0 0.0 0.0 0.00 0.00 0.00 73 1021.6
20260902223524 66 0 0.0 1.0 0.00 0.00 0.00 72 1021.7
20260902223044 66 0 0.0 1.0 0.00 0.00 0.00 71 1021.8
20260902222524 66 0 0.0 1.0 0.00 0.00 0.00 71 1021.8
20260902222025 66 0 0.0 0.0 0.00 0.00 0.00 69 1021.8
20260902221544 66 0 0.0 1.0 0.00 0.00 0.00 69 1021.8
20260902221025 66 0 0.0 1.0 0.00 0.00 0.00 69 1021.5
20260902220525 67 0 0.0 1.0 0.00 0.00 0.00 69 1021.5
20260902220055 67 0 0.0 0.0 0.00 0.00 0.00 69 1021.4
20260902215524 67 0 0.0 0.0 0.00 0.00 0.00 69 1021.4
20260902215026 67 0 0.0 0.0 0.00 0.00 0.00 68 1021.4
20260902214559 67 0 0.0 0.0 0.00 0.00 0.00 67 1021.4
20260902214027 67 0 0.0 0.0 0.00 0.00 0.00 67 1021.3
20260902213525 67 0 0.0 0.0 0.00 0.00 0.00 67 1021.5
20260902213048 67 0 0.0 1.0 0.00 0.00 0.00 67 1021.6
20260902212526 68 0 0.0 2.0 0.00 0.00 0.00 67 1021.7
20260902212025 68 0 0.0 2.0 0.00 0.00 0.00 66 1021.6
20260902211544 68 0 0.0 2.0 0.00 0.00 0.00 67 1021.8
20260902211024 68 0 0.0 1.0 0.00 0.00 0.00 66 1021.8
20260902210529 68 0 0.0 1.0 0.00 0.00 0.00 66 1022.0
20260902210045 68 0 0.0 2.0 0.00 0.00 0.00 64 1021.9
20260902205524 68 0 0.0 2.0 0.00 0.00 0.00 64 1021.9
20260902205025 68 0 0.0 2.0 0.00 0.00 0.00 65 1021.7
20260902204543 68 0 0.0 0.0 0.00 0.00 0.00 65 1022.0
20260902204030 68 0 0.0 1.0 0.00 0.00 0.00 64 1022.0
20260902203524 68 0 0.0 5.0 0.00 0.00 0.00 65 1022.0
20260902203049 68 0 0.0 5.0 0.00 0.00 0.00 65 1021.9
20260902202526 68 0 0.0 1.0 0.00 0.00 0.00 64 1021.8
20260902202024 69 0 0.0 1.0 0.00 0.00 0.00 64 1021.9
20260902201547 69 0 0.0 3.0 0.00 0.00 0.00 65 1021.8
20260902201025 69 0 0.0 4.0 0.00 0.00 0.00 64 1021.9
20260902200524 69 0 0.0 5.0 0.00 0.00 0.00 63 1021.9
20260902200046 69 0 0.0 5.0 0.00 0.00 0.00 64 1022.0
20260902195527 70 0 0.0 5.0 0.00 0.00 0.00 65 1022.3
20260902195025 70 0 0.0 2.0 0.00 0.00 0.00 64 1022.2
20260902194541 70 0 0.0 2.0 0.00 0.00 0.00 63 1022.4
20260902194027 70 0 0.0 2.0 0.00 0.00 0.00 64 1022.3
20260902193526 70 0 0.0 5.0 0.00 0.00 0.00 64 1022.4
20260902193050 70 0 0.0 5.0 0.00 0.00 0.00 64 1022.4
20260902192525 70 0 0.0 2.0 0.00 0.00 0.00 65 1022.4
20260902192023 70 0 0.0 1.0 0.00 0.00 0.00 63 1022.4
20260902191548 70 0 0.0 4.0 0.00 0.00 0.00 64 1022.5
20260902191026 70 0 0.0 4.0 0.00 0.00 0.00 63 1022.7
20260902190528 70 0 0.0 4.0 0.00 0.00 0.00 63 1022.5
20260902190043 70 0 0.0 1.0 0.00 0.00 0.00 62 1022.6
20260902185525 71 0 0.0 0.0 0.00 0.00 0.00 62 1022.6
20260902185028 71 0 0.0 0.0 0.00 0.00 0.00 63 1022.5
20260902184548 71 0 0.0 0.0 0.00 0.00 0.00 64 1022.5
20260902184026 71 0 0.0 2.0 0.00 0.00 0.00 62 1022.4
20260902183528 71 0 0.0 2.0 0.00 0.00 0.00 63 1022.4
20260902183057 71 0 0.0 2.0 0.00 0.00 0.00 63 1022.4
20260902182526 71 0 0.0 0.0 0.00 0.00 0.00 63 1022.4
20260902182026 71 0 0.0 5.0 0.00 0.00 0.00 61 1022.4
20260902181544 71 0 0.0 5.0 0.00 0.00 0.00 60 1022.4
20260902181028 71 102 0.0 5.0 0.00 0.00 0.00 61 1022.3
20260902180525 71 0 0.0 6.0 0.00 0.00 0.00 60 1022.2
20260902180050 71 0 0.0 6.0 0.00 0.00 0.00 59 1022.4
20260902175525 71 0 0.0 6.0 0.00 0.00 0.00 59 1022.3
20260902175025 71 0 0.0 5.0 0.00 0.00 0.00 59 1022.4
20260902174553 72 0 0.0 4.0 0.00 0.00 0.00 60 1022.4
20260902174025 71 0 0.0 2.0 0.00 0.00 0.00 59 1022.3
20260902173526 71 0 0.0 0.0 0.00 0.00 0.00 60 1022.3
20260902173107 71 0 0.0 5.0 0.00 0.00 0.00 59 1022.4
20260902172525 71 0 0.0 5.0 0.00 0.00 0.00 59 1022.4
20260902172031 71 106 0.0 4.0 0.00 0.00 0.00 59 1022.3
20260902171545 71 112 0.0 4.0 0.00 0.00 0.00 58 1022.3
20260902171029 72 0 0.0 0.0 0.00 0.00 0.00 58 1022.2
20260902170526 72 0 0.0 0.0 0.00 0.00 0.00 59 1022.3
20260902170057 72 0 0.0 0.0 0.00 0.00 0.00 60 1022.2
20260902165530 71 0 0.0 1.0 0.00 0.00 0.00 58 1022.1
20260902165027 71 0 0.0 1.0 0.00 0.00 0.00 56 1022.4
20260902164544 72 0 0.0 1.0 0.00 0.00 0.00 57 1022.5
20260902164026 72 0 0.0 1.0 0.00 0.00 0.00 60 1022.7
20260902163524 72 0 0.0 1.0 0.00 0.00 0.00 59 1022.7
20260902163042 72 0 0.0 1.0 0.00 0.00 0.00 62 1022.8
20260902162524 72 0 0.0 1.0 0.00 0.00 0.00 60 1022.9
20260902162024 72 0 0.0 2.0 0.00 0.00 0.00 60 1022.9
20260902161543 72 0 0.0 2.0 0.00 0.00 0.00 60 1022.9
20260902161026 72 0 0.0 2.0 0.00 0.00 0.00 62 1022.8
20260902160527 72 0 0.0 1.0 0.00 0.00 0.00 65 1022.9
20260902160059 71 0 0.0 3.0 0.00 0.00 0.00 64 1022.9
20260902155526 71 0 0.0 3.0 0.00 0.00 0.00 63 1022.8
20260902155027 71 0 0.0 3.0 0.00 0.00 0.00 62 1022.9
20260902154546 71 0 0.0 3.0 0.00 0.00 0.00 64 1023.1
20260902154031 70 0 0.0 0.0 0.00 0.00 0.00 65 1023.1
20260902153526 70 0 0.0 0.0 0.00 0.00 0.00 69 1023.1
20260902153043 70 0 0.0 0.0 0.00 0.00 0.00 67 1023.0
20260902152524 70 0 0.0 1.0 0.00 0.00 0.00 66 1023.1
20260902152023 69 0 0.0 1.0 0.00 0.00 0.00 66 1023.1
20260902151549 69 0 0.0 3.0 0.00 0.00 0.00 67 1023.2
20260902151027 69 0 0.0 3.0 0.00 0.00 0.00 67 1023.2
20260902150525 69 0 0.0 0.0 0.00 0.00 0.00 68 1023.2
20260902150048 69 0 0.0 1.0 0.00 0.00 0.00 68 1023.2
20260902145524 68 0 0.0 1.0 0.00 0.00 0.00 69 1023.4
20260902145028 68 0 0.0 1.0 0.00 0.00 0.00 68 1023.2
20260902144541 68 0 0.0 0.0 0.00 0.00 0.00 70 1023.2
20260902144026 68 0 0.0 0.0 0.00 0.00 0.00 70 1023.4
20260902143529 68 0 0.0 6.0 0.00 0.00 0.00 69 1023.3
20260902143042 68 0 0.0 6.0 0.00 0.00 0.00 68 1023.3
20260902142528 68 332 0.0 2.0 0.00 0.00 0.00 68 1023.3
20260902142025 68 0 0.0 2.0 0.00 0.00 0.00 69 1023.2
20260902141556 67 0 0.0 2.0 0.00 0.00 0.00 71 1023.2
20260902141025 67 0 0.0 0.0 0.00 0.00 0.00 74 1023.1
20260902140526 67 0 0.0 0.0 0.00 0.00 0.00 74 1023.2
20260902140048 66 0 0.0 3.0 0.00 0.00 0.00 77 1023.1
20260902135528 66 0 0.0 3.0 0.00 0.00 0.00 77 1023.0
20260902135025 66 0 0.0 3.0 0.00 0.00 0.00 74 1023.1
20260902134544 65 0 0.0 0.0 0.00 0.00 0.00 77 1023.1
20260902134025 65 0 0.0 0.0 0.00 0.00 0.00 78 1023.2
20260902133525 65 0 0.0 0.0 0.00 0.00 0.00 79 1023.2
20260902133051 65 0 0.0 0.0 0.00 0.00 0.00 81 1023.2
20260902132525 64 0 0.0 0.0 0.00 0.00 0.00 81 1023.2
20260902132029 64 0 0.0 0.0 0.00 0.00 0.00 81 1023.1
20260902131550 64 0 0.0 0.0 0.00 0.00 0.00 80 1023.3
20260902131028 64 0 0.0 0.0 0.00 0.00 0.00 83 1023.1
20260902130525 64 0 0.0 0.0 0.00 0.00 0.00 85 1023.2
20260902130049 64 0 0.0 0.0 0.00 0.00 0.00 86 1023.0
20260902125528 64 0 0.0 0.0 0.00 0.00 0.00 85 1023.0
20260902125024 63 0 0.0 0.0 0.00 0.00 0.00 86 1023.1
20260902124559 63 0 0.0 0.0 0.00 0.00 0.00 88 1023.1
20260902124028 63 0 0.0 0.0 0.00 0.00 0.00 87 1023.1
20260902123526 63 0 0.0 0.0 0.00 0.00 0.00 87 1023.1
20260902123123 63 0 0.0 0.0 0.00 0.00 0.00 88 1023.1
20260902122525 63 0 0.0 0.0 0.00 0.00 0.00 89 1023.4
20260902122025 62 0 0.0 1.0 0.00 0.00 0.00 89 1023.2
20260902121552 62 0 0.0 1.0 0.00 0.00 0.00 90 1023.3
20260902121025 62 0 0.0 1.0 0.00 0.00 0.00 91 1023.4
20260902120525 62 0 0.0 1.0 0.00 0.00 0.00 92 1023.4
20260902120045 62 0 0.0 0.0 0.00 0.00 0.00 93 1023.4
20260902115525 62 0 0.0 0.0 0.00 0.00 0.00 93 1023.3
20260902115028 61 0 0.0 0.0 0.00 0.00 0.00 93 1023.2
20260902114547 61 0 0.0 0.0 0.00 0.00 0.00 94 1023.3
20260902114024 61 0 0.0 0.0 0.00 0.00 0.00 94 1023.1
20260902113524 61 0 0.0 0.0 0.00 0.00 0.00 94 1023.0
20260902113048 61 0 0.0 0.0 0.00 0.00 0.00 94 1023.1
20260902112525 61 0 0.0 0.0 0.00 0.00 0.00 94 1023.0
20260902112027 61 0 0.0 0.0 0.00 0.00 0.00 94 1023.1
20260902111551 61 0 0.0 0.0 0.00 0.00 0.00 94 1023.0
20260902111025 61 0 0.0 0.0 0.00 0.00 0.00 93 1023.0
20260902110528 61 0 0.0 0.0 0.00 0.00 0.00 94 1023.0
20260902110054 61 0 0.0 0.0 0.00 0.00 0.00 94 1022.9
20260902105525 61 0 0.0 0.0 0.00 0.00 0.00 94 1022.9
20260902105024 61 0 0.0 0.0 0.00 0.00 0.00 94 1022.9
20260902104542 61 0 0.0 0.0 0.00 0.00 0.00 94 1022.8
20260902104024 61 0 0.0 0.0 0.00 0.00 0.00 94 1022.9
20260902103523 61 0 0.0 0.0 0.00 0.00 0.00 94 1022.8
20260902103048 61 0 0.0 0.0 0.00 0.00 0.00 94 1022.7
20260902102528 61 0 0.0 0.0 0.00 0.00 0.00 93 1022.8
20260902102026 61 0 0.0 0.0 0.00 0.00 0.00 93 1022.7
20260902101552 61 0 0.0 0.0 0.00 0.00 0.00 93 1022.7
20260902101024 61 0 0.0 0.0 0.00 0.00 0.00 93 1022.6
20260902100524 61 0 0.0 0.0 0.00 0.00 0.00 93 1022.7
20260902100052 61 0 0.0 0.0 0.00 0.00 0.00 93 1022.7
20260902095524 61 0 0.0 0.0 0.00 0.00 0.00 93 1022.6
20260902095025 61 0 0.0 0.0 0.00 0.00 0.00 93 1022.5
20260902094546 61 0 0.0 1.0 0.00 0.00 0.00 93 1022.6
20260902094028 61 0 0.0 1.0 0.00 0.00 0.00 92 1022.5
20260902093523 61 0 0.0 1.0 0.00 0.00 0.00 92 1022.5
20260902093047 61 0 0.0 0.0 0.00 0.00 0.00 92 1022.5
20260902092525 61 0 0.0 0.0 0.00 0.00 0.00 92 1022.6
20260902092025 61 0 0.0 0.0 0.00 0.00 0.00 92 1022.6
20260902091558 61 0 0.0 0.0 0.00 0.00 0.00 92 1022.6
20260902091031 61 0 0.0 0.0 0.00 0.00 0.00 93 1022.7
20260902090524 61 0 0.0 0.0 0.00 0.00 0.00 93 1022.6
20260902090052 61 0 0.0 0.0 0.00 0.00 0.00 93 1022.5
20260902085523 61 0 0.0 0.0 0.00 0.00 0.00 93 1022.4
20260902085023 61 0 0.0 0.0 0.00 0.00 0.00 93 1022.5
20260902084552 61 0 0.0 0.0 0.00 0.00 0.00 93 1022.5
20260902084027 61 0 0.0 0.0 0.00 0.00 0.00 93 1022.4
20260902083531 61 0 0.0 0.0 0.00 0.00 0.00 93 1022.5
20260902083043 61 0 0.0 0.0 0.00 0.00 0.00 93 1022.4
20260902082525 61 0 0.0 0.0 0.00 0.00 0.00 93 1022.3
20260902082024 61 0 0.0 0.0 0.00 0.00 0.00 93 1022.3
20260902081546 61 0 0.0 0.0 0.00 0.00 0.00 93 1022.3
20260902081024 61 0 0.0 0.0 0.00 0.00 0.00 93 1022.3
20260902080525 61 0 0.0 0.0 0.00 0.00 0.00 93 1022.2
20260902080052 61 0 0.0 0.0 0.00 0.00 0.00 93 1022.2
20260902075523 61 0 0.0 0.0 0.00 0.00 0.00 93 1022.1
20260902075024 61 0 0.0 0.0 0.00 0.00 0.00 93 1022.2
20260902074546 61 0 0.0 0.0 0.00 0.00 0.00 93 1022.1
20260902074025 62 0 0.0 0.0 0.00 0.00 0.00 92 1022.0
20260902073528 62 0 0.0 0.0 0.00 0.00 0.00 92 1021.9
20260902073048 62 0 0.0 0.0 0.00 0.00 0.00 92 1021.9
20260902072528 62 0 0.0 0.0 0.00 0.00 0.00 92 1022.0
20260902072027 62 0 0.0 0.0 0.00 0.00 0.00 92 1021.9
20260902071548 62 0 0.0 0.0 0.00 0.00 0.00 92 1021.8
20260902071024 62 0 0.0 0.0 0.00 0.00 0.00 92 1021.7
20260902070525 62 0 0.0 0.0 0.00 0.00 0.00 92 1021.8
20260902070051 62 0 0.0 0.0 0.00 0.00 0.00 92 1021.7
20260902065527 62 0 0.0 0.0 0.00 0.00 0.00 92 1021.9
20260902065024 62 0 0.0 0.0 0.00 0.00 0.00 92 1022.0
20260902064546 62 0 0.0 0.0 0.00 0.00 0.00 92 1021.8
20260902064027 62 0 0.0 0.0 0.00 0.00 0.00 92 1021.8
20260902063529 62 0 0.0 0.0 0.00 0.00 0.00 92 1021.9
20260902063046 62 0 0.0 0.0 0.00 0.00 0.00 92 1021.8
20260902062525 62 0 0.0 0.0 0.00 0.00 0.00 92 1021.9
20260902062024 62 0 0.0 0.0 0.00 0.00 0.00 92 1021.9
20260902061557 62 0 0.0 0.0 0.00 0.00 0.00 92 1021.8
20260902061027 62 0 0.0 0.0 0.00 0.00 0.00 92 1021.7
20260902060532 62 0 0.0 0.0 0.00 0.00 0.00 92 1021.6
20260902060042 62 0 0.0 0.0 0.00 0.00 0.00 92 1021.7
20260902055528 62 0 0.0 0.0 0.00 0.00 0.00 92 1021.6
20260902055024 62 0 0.0 0.0 0.00 0.00 0.00 92 1021.6
20260902054544 62 0 0.0 0.0 0.00 0.00 0.00 92 1021.6
20260902054024 62 0 0.0 0.0 0.00 0.00 0.00 93 1021.6
20260902053524 62 0 0.0 0.0 0.00 0.00 0.00 93 1021.5
20260902053048 62 0 0.0 0.0 0.00 0.00 0.00 93 1021.5
20260902052532 62 0 0.0 0.0 0.00 0.00 0.00 93 1021.4
20260902052025 62 0 0.0 0.0 0.00 0.00 0.00 93 1021.3
20260902051546 62 0 0.0 0.0 0.00 0.00 0.00 93 1021.2
20260902051024 62 0 0.0 0.0 0.00 0.00 0.00 93 1021.2
20260902050528 62 0 0.0 0.0 0.00 0.00 0.00 93 1021.0
20260902050042 62 0 0.0 0.0 0.00 0.00 0.00 93 1021.0
20260902045527 62 0 0.0 0.0 0.00 0.00 0.00 93 1020.9
20260902045026 62 0 0.0 0.0 0.00 0.00 0.00 93 1020.9
20260902044543 62 0 0.0 0.0 0.00 0.00 0.00 93 1020.8
20260902044026 62 0 0.0 0.0 0.00 0.00 0.00 93 1020.8
20260902043524 62 0 0.0 0.0 0.00 0.00 0.00 93 1020.6
20260902043050 62 0 0.0 0.0 0.00 0.00 0.00 93 1020.7
20260902042526 62 0 0.0 0.0 0.00 0.00 0.00 93 1020.7
20260902042025 62 0 0.0 0.0 0.00 0.00 0.00 93 1020.6
20260902041554 62 0 0.0 0.0 0.00 0.00 0.00 93 1020.7
20260902041025 62 0 0.0 0.0 0.00 0.00 0.00 93 1020.7
20260902040524 62 0 0.0 0.0 0.00 0.00 0.00 93 1020.7
20260902040044 62 0 0.0 0.0 0.00 0.00 0.00 93 1020.6
20260902035533 62 0 0.0 0.0 0.00 0.00 0.00 93 1020.6
20260902035024 62 0 0.0 0.0 0.00 0.00 0.00 93 1020.6
20260902034550 62 0 0.0 0.0 0.00 0.00 0.00 93 1020.6
20260902034023 62 0 0.0 0.0 0.00 0.00 0.00 93 1020.6
20260902033524 62 0 0.0 0.0 0.00 0.00 0.00 92 1020.6
20260902033044 62 0 0.0 0.0 0.00 0.00 0.00 92 1020.5
20260902032527 62 0 0.0 0.0 0.00 0.00 0.00 92 1020.5
20260902032030 62 0 0.0 0.0 0.00 0.00 0.00 91 1020.3
20260902031546 62 0 0.0 0.0 0.00 0.00 0.00 91 1020.2
20260902031024 62 0 0.0 0.0 0.00 0.00 0.00 91 1020.2
20260902030527 62 0 0.0 0.0 0.00 0.00 0.00 91 1020.1
20260902030051 62 0 0.0 0.0 0.00 0.00 0.00 91 1020.0
20260902025525 63 0 0.0 0.0 0.00 0.00 0.00 91 1020.1
20260902025025 63 0 0.0 0.0 0.00 0.00 0.00 91 1020.2
20260902024551 63 0 0.0 0.0 0.00 0.00 0.00 91 1020.1
20260902024024 63 0 0.0 0.0 0.00 0.00 0.00 91 1020.1
20260902023524 63 0 0.0 0.0 0.00 0.00 0.00 91 1020.1
20260902023046 63 0 0.0 0.0 0.00 0.00 0.00 90 1020.2
20260902022528 63 0 0.0 0.0 0.00 0.00 0.00 90 1020.3
20260902022027 63 0 0.0 0.0 0.00 0.00 0.00 90 1020.3
20260902021542 63 0 0.0 0.0 0.00 0.00 0.00 90 1020.2
20260902021024 63 0 0.0 0.0 0.00 0.00 0.00 90 1020.3
20260902020525 63 0 0.0 0.0 0.00 0.00 0.00 90 1020.2
20260902020056 63 0 0.0 0.0 0.00 0.00 0.00 90 1020.3
20260902015524 63 0 0.0 0.0 0.00 0.00 0.00 90 1020.4
20260902015025 63 0 0.0 0.0 0.00 0.00 0.00 90 1020.2
20260902014547 63 0 0.0 0.0 0.00 0.00 0.00 90 1020.2
20260902014028 63 0 0.0 0.0 0.00 0.00 0.00 90 1020.2
20260902013526 63 0 0.0 0.0 0.00 0.00 0.00 90 1020.3
20260902013044 63 0 0.0 0.0 0.00 0.00 0.00 90 1020.3
20260902012529 63 0 0.0 0.0 0.00 0.00 0.00 90 1020.2
20260902012028 63 0 0.0 0.0 0.00 0.00 0.00 90 1020.2
20260902011543 63 0 0.0 0.0 0.00 0.00 0.00 90 1020.1
20260902011026 63 0 0.0 0.0 0.00 0.00 0.00 90 1020.1
20260902010524 63 0 0.0 0.0 0.00 0.00 0.00 90 1020.0
20260902010040 63 0 0.0 0.0 0.00 0.00 0.00 90 1020.1
20260902005527 63 0 0.0 0.0 0.00 0.00 0.00 89 1020.1
20260902005025 63 0 0.0 0.0 0.00 0.00 0.00 89 1020.0
20260902004550 63 0 0.0 0.0 0.00 0.00 0.00 89 1020.0
20260902004118 63 0 0.0 0.0 0.00 0.00 0.00 89 1020.0
20260902003523 63 0 0.0 0.0 0.00 0.00 0.00 89 1020.0
20260902003048 63 0 0.0 0.0 0.00 0.00 0.00 89 1019.8
20260902002527 63 0 0.0 0.0 0.00 0.00 0.00 88 1019.8
20260902002031 64 0 0.0 0.0 0.00 0.00 0.00 88 1019.8
20260902001543 64 0 0.0 0.0 0.00 0.00 0.00 88 1019.8